Time,TemperatureF,DewpointF,PressureIn,WindDirection,WindDirectionDegrees,WindSpeedMPH,WindSpeedGustMPH,Humidity,HourlyPrecipIn,Conditions,Clouds,dailyrainin,SolarRadiationWatts/m^2,SoftwareType,DateUTC
2013-10-26 00:00:00,47.6,32.2,30.19,SW,215,7.0,16.0,55,0.00,CLR,,0.00,0.0,WeatherDisplay:10.37,2013-10-26 05:00:00,
2013-10-26 00:05:00,47.7,32.3,30.19,SSW,209,10.0,15.0,55,0.00,CLR,,0.00,0.0,WeatherDisplay:10.37,2013-10-26 05:05:00,
2013-10-26 00:10:00,47.8,32.9,30.18,SSW,211,7.0,17.0,56,0.00,CLR,,0.00,0.0,WeatherDisplay:10.37,2013-10-26 05:10:00,
2013-10-26 00:20:00,47.8,32.9,30.18,SW,214,10.0,20.0,56,0.00,CLR,,0.00,0.0,WeatherDisplay:10.37,2013-10-26 05:20:00,
2013-10-26 00:30:00,47.7,33.2,30.18,SW,216,8.0,14.0,57,0.00,CLR,,0.00,0.0,WeatherDisplay:10.37,2013-10-26 05:30:00,
2013-10-26 00:35:00,47.6,33.1,30.18,SSW,213,7.0,16.0,57,0.00,CLR,,0.00,0.0,WeatherDisplay:10.37,2013-10-26 05:35:00,
2013-10-26 00:40:00,47.5,33.4,30.17,SW,214,5.0,14.0,58,0.00,CLR,,0.00,0.0,WeatherDisplay:10.37,2013-10-26 05:40:00,
2013-10-26 00:45:00,47.4,33.4,30.17,SSW,213,8.0,12.0,58,0.00,CLR,,0.00,0.0,WeatherDisplay:10.37,2013-10-26 05:45:00,
2013-10-26 00:50:00,47.3,33.7,30.17,SSW,211,8.0,13.0,59,0.00,CLR,,0.00,0.0,WeatherDisplay:10.37,2013-10-26 05:50:00,
2013-10-26 00:55:00,47.2,33.6,30.17,SSW,212,5.0,12.0,59,0.00,CLR,,0.00,0.0,WeatherDisplay:10.37,2013-10-26 05:55:00,
2013-10-26 01:00:00,47.0,33.8,30.17,SSW,212,7.0,16.0,60,0.00,CLR,,0.00,0.0,WeatherDisplay:10.37,2013-10-26 06:00:00,
2013-10-26 01:05:00,47.0,33.8,30.17,SW,214,3.0,17.0,60,0.00,CLR,,0.00,0.0,WeatherDisplay:10.37,2013-10-26 06:05:00,
2013-10-26 01:10:00,46.8,34.0,30.18,SW,218,6.0,12.0,61,0.00,CLR,,0.00,0.0,WeatherDisplay:10.37,2013-10-26 06:10:00,
2013-10-26 01:15:00,46.7,34.0,30.18,SW,222,6.0,12.0,61,0.00,CLR,,0.00,0.0,WeatherDisplay:10.37,2013-10-26 06:15:00,
2013-10-26 01:20:00,46.6,34.3,30.18,SW,221,6.0,12.0,62,0.00,CLR,,0.00,0.0,WeatherDisplay:10.37,2013-10-26 06:20:00,
2013-10-26 01:25:00,46.5,34.2,30.18,SSW,211,3.0,9.0,62,0.00,CLR,,0.00,0.0,WeatherDisplay:10.37,2013-10-26 06:25:00,
2013-10-26 01:30:00,46.3,34.4,30.18,SSW,213,5.0,12.0,63,0.00,CLR,,0.00,0.0,WeatherDisplay:10.37,2013-10-26 06:30:00,
2013-10-26 01:35:00,46.3,34.4,30.18,SW,217,3.0,8.0,63,0.00,CLR,,0.00,0.0,WeatherDisplay:10.37,2013-10-26 06:35:00,
2013-10-26 01:40:00,46.1,34.6,30.18,SW,214,3.0,10.0,64,0.00,CLR,,0.00,0.0,WeatherDisplay:10.37,2013-10-26 06:40:00,
2013-10-26 01:50:00,45.6,34.5,30.17,SW,220,1.0,5.0,65,0.00,CLR,,0.00,0.0,WeatherDisplay:10.37,2013-10-26 06:50:00,
2013-10-26 02:00:00,45.0,34.3,30.17,SW,215,0.0,5.0,66,0.00,CLR,,0.00,0.0,WeatherDisplay:10.37,2013-10-26 07:00:00,
2013-10-26 02:05:00,44.8,34.1,30.17,SW,215,2.0,4.0,66,0.00,CLR,,0.00,0.0,WeatherDisplay:10.37,2013-10-26 07:05:00,
2013-10-26 02:10:00,44.6,34.3,30.16,SSW,205,1.0,20.0,67,0.00,CLR,,0.00,0.0,WeatherDisplay:10.37,2013-10-26 07:10:00,
2013-10-26 02:15:00,44.4,34.5,30.16,SSW,209,1.0,7.0,68,0.00,CLR,,0.00,0.0,WeatherDisplay:10.37,2013-10-26 07:15:00,
2013-10-26 02:20:00,44.2,34.3,30.16,SSW,213,2.0,7.0,68,0.00,CLR,,0.00,0.0,WeatherDisplay:10.37,2013-10-26 07:20:00,
2013-10-26 02:25:00,44.1,34.2,30.15,SSW,209,1.0,5.0,68,0.00,CLR,,0.00,0.0,WeatherDisplay:10.37,2013-10-26 07:25:00,
2013-10-26 02:30:00,44.0,34.1,30.15,SSW,210,2.0,6.0,68,0.00,CLR,,0.00,0.0,WeatherDisplay:10.37,2013-10-26 07:30:00,
2013-10-26 02:35:00,44.0,34.5,30.15,SSW,211,2.0,9.0,69,0.00,CLR,,0.00,0.0,WeatherDisplay:10.37,2013-10-26 07:35:00,
2013-10-26 02:40:00,43.9,34.4,30.15,SSW,210,2.0,7.0,69,0.00,CLR,,0.00,0.0,WeatherDisplay:10.37,2013-10-26 07:40:00,
2013-10-26 02:45:00,43.9,34.4,30.15,SSW,212,0.0,5.0,69,0.00,CLR,,0.00,0.0,WeatherDisplay:10.37,2013-10-26 07:45:00,
2013-10-26 02:50:00,43.8,34.3,30.15,SW,215,1.0,6.0,69,0.00,CLR,,0.00,0.0,WeatherDisplay:10.37,2013-10-26 07:50:00,
2013-10-26 02:55:00,43.6,34.5,30.14,SSW,211,1.0,7.0,70,0.00,CLR,,0.00,0.0,WeatherDisplay:10.37,2013-10-26 07:55:00,
2013-10-26 03:00:00,43.5,34.3,30.14,SSW,208,1.0,5.0,70,0.00,CLR,,0.00,0.0,WeatherDisplay:10.37,2013-10-26 08:00:00,
2013-10-26 03:10:00,43.3,34.9,30.14,SSW,202,0.0,4.0,72,0.00,CLR,,0.00,0.0,WeatherDisplay:10.37,2013-10-26 08:10:00,
2013-10-26 03:15:00,43.2,34.8,30.14,SW,214,1.0,5.0,72,0.00,CLR,,0.00,0.0,WeatherDisplay:10.37,2013-10-26 08:15:00,
2013-10-26 03:20:00,43.0,34.6,30.14,SW,219,1.0,4.0,72,0.00,CLR,,0.00,0.0,WeatherDisplay:10.37,2013-10-26 08:20:00,
2013-10-26 03:25:00,42.9,34.5,30.14,SW,220,1.0,3.0,72,0.00,CLR,,0.00,0.0,WeatherDisplay:10.37,2013-10-26 08:25:00,
2013-10-26 03:30:00,42.7,34.7,30.14,SW,221,2.0,7.0,73,0.00,CLR,,0.00,0.0,WeatherDisplay:10.37,2013-10-26 08:30:00,
2013-10-26 03:35:00,42.7,34.6,30.14,SW,220,1.0,5.0,73,0.00,CLR,,0.00,0.0,WeatherDisplay:10.37,2013-10-26 08:35:00,
2013-10-26 03:40:00,42.7,34.6,30.13,SW,216,1.0,8.0,73,0.00,CLR,,0.00,0.0,WeatherDisplay:10.37,2013-10-26 08:40:00,
2013-10-26 03:45:00,42.7,35.0,30.13,SSW,212,3.0,9.0,74,0.00,CLR,,0.00,0.0,WeatherDisplay:10.37,2013-10-26 08:45:00,
2013-10-26 03:50:00,42.7,35.0,30.13,SW,216,5.0,8.0,74,0.00,CLR,,0.00,0.0,WeatherDisplay:10.37,2013-10-26 08:50:00,
2013-10-26 03:55:00,42.6,34.9,30.13,SW,215,3.0,10.0,74,0.00,CLR,,0.00,0.0,WeatherDisplay:10.37,2013-10-26 08:55:00,
2013-10-26 04:05:00,42.6,34.9,30.13,SSW,213,6.0,12.0,74,0.00,CLR,,0.00,0.0,WeatherDisplay:10.37,2013-10-26 09:05:00,
2013-10-26 04:10:00,42.5,34.8,30.13,SSW,213,3.0,10.0,74,0.00,CLR,,0.00,0.0,WeatherDisplay:10.37,2013-10-26 09:10:00,
2013-10-26 04:15:00,42.5,35.1,30.13,SW,215,3.0,12.0,75,0.00,CLR,,0.00,0.0,WeatherDisplay:10.37,2013-10-26 09:15:00,
2013-10-26 04:20:00,42.4,35.0,30.12,SSW,212,3.0,10.0,75,0.00,CLR,,0.00,0.0,WeatherDisplay:10.37,2013-10-26 09:20:00,
2013-10-26 04:25:00,42.3,34.9,30.12,SSW,209,5.0,9.0,75,0.00,CLR,,0.00,0.0,WeatherDisplay:10.37,2013-10-26 09:25:00,
2013-10-26 04:30:00,42.3,35.3,30.12,SW,218,3.0,10.0,76,0.00,CLR,,0.00,0.0,WeatherDisplay:10.37,2013-10-26 09:30:00,
2013-10-26 04:40:00,42.3,35.3,30.12,SW,214,3.0,13.0,76,0.00,CLR,,0.00,0.0,WeatherDisplay:10.37,2013-10-26 09:40:00,
2013-10-26 04:50:00,42.2,35.5,30.12,SSW,211,2.0,9.0,77,0.00,CLR,,0.00,0.0,WeatherDisplay:10.37,2013-10-26 09:50:00,
2013-10-26 04:55:00,42.2,35.8,30.12,SW,214,5.0,10.0,78,0.00,CLR,,0.00,0.0,WeatherDisplay:10.37,2013-10-26 09:55:00,
2013-10-26 05:00:00,42.3,35.9,30.12,SW,223,3.0,10.0,78,0.00,CLR,,0.00,0.0,WeatherDisplay:10.37,2013-10-26 10:00:00,
2013-10-26 05:05:00,42.2,35.8,30.12,SW,220,3.0,7.0,78,0.00,CLR,,0.00,0.0,WeatherDisplay:10.37,2013-10-26 10:05:00,
2013-10-26 05:10:00,42.3,35.9,30.12,SW,214,2.0,12.0,78,0.00,CLR,,0.00,0.0,WeatherDisplay:10.37,2013-10-26 10:10:00,
2013-10-26 05:15:00,42.3,35.9,30.12,SW,214,5.0,7.0,78,0.00,CLR,,0.00,0.0,WeatherDisplay:10.37,2013-10-26 10:15:00,
2013-10-26 05:20:00,42.3,36.3,30.12,SW,214,3.0,8.0,79,0.00,CLR,,0.00,0.0,WeatherDisplay:10.37,2013-10-26 10:20:00,
2013-10-26 05:30:00,42.4,36.3,30.12,SW,216,5.0,12.0,79,0.00,CLR,,0.00,0.0,WeatherDisplay:10.37,2013-10-26 10:30:00,
2013-10-26 05:35:00,42.5,36.4,30.12,SW,217,5.0,12.0,79,0.00,CLR,,0.00,0.0,WeatherDisplay:10.37,2013-10-26 10:35:00,
2013-10-26 05:40:00,42.5,36.4,30.12,SW,216,6.0,12.0,79,0.00,CLR,,0.00,0.0,WeatherDisplay:10.37,2013-10-26 10:40:00,
2013-10-26 05:45:00,42.7,36.6,30.12,SW,217,7.0,15.0,79,0.00,CLR,,0.00,0.0,WeatherDisplay:10.37,2013-10-26 10:45:00,
2013-10-26 05:50:00,42.7,36.6,30.12,SW,219,5.0,10.0,79,0.00,CLR,,0.00,0.0,WeatherDisplay:10.37,2013-10-26 10:50:00,
2013-10-26 05:55:00,42.8,36.7,30.12,SW,215,6.0,14.0,79,0.00,CLR,,0.00,0.0,WeatherDisplay:10.37,2013-10-26 10:55:00,
2013-10-26 06:00:00,42.8,37.0,30.12,SSW,212,7.0,12.0,80,0.00,CLR,,0.00,0.0,WeatherDisplay:10.37,2013-10-26 11:00:00,
2013-10-26 06:05:00,42.8,37.1,30.12,SSW,212,5.0,13.0,80,0.00,CLR,,0.00,0.0,WeatherDisplay:10.37,2013-10-26 11:05:00,
2013-10-26 06:10:00,42.8,37.1,30.12,SW,214,6.0,12.0,80,0.00,CLR,,0.00,0.0,WeatherDisplay:10.37,2013-10-26 11:10:00,
2013-10-26 06:15:00,42.9,37.2,30.11,SSW,213,8.0,14.0,80,0.00,CLR,,0.00,0.0,WeatherDisplay:10.37,2013-10-26 11:15:00,
2013-10-26 06:20:00,43.1,37.3,30.11,SSW,207,8.0,14.0,80,0.00,CLR,,0.00,0.0,WeatherDisplay:10.37,2013-10-26 11:20:00,
2013-10-26 06:25:00,43.2,37.4,30.11,SSW,213,7.0,13.0,80,0.00,CLR,,0.00,0.0,WeatherDisplay:10.37,2013-10-26 11:25:00,
2013-10-26 06:30:00,43.3,37.9,30.11,SW,221,8.0,15.0,81,0.00,CLR,,0.00,0.0,WeatherDisplay:10.37,2013-10-26 11:30:00,
2013-10-26 06:35:00,43.6,38.2,30.11,SW,220,8.0,15.0,81,0.00,CLR,,0.00,0.0,WeatherDisplay:10.37,2013-10-26 11:35:00,
2013-10-26 06:40:00,43.7,38.3,30.11,SW,223,8.0,15.0,81,0.00,CLR,,0.00,0.0,WeatherDisplay:10.37,2013-10-26 11:40:00,
2013-10-26 06:50:00,43.9,38.4,30.11,SW,217,6.0,17.0,81,0.00,CLR,,0.00,0.0,WeatherDisplay:10.37,2013-10-26 11:50:00,
2013-10-26 06:55:00,44.0,38.5,30.11,SW,219,8.0,13.0,81,0.00,CLR,,0.00,0.0,WeatherDisplay:10.37,2013-10-26 11:55:00,
2013-10-26 07:00:00,44.2,38.7,30.11,SW,216,8.0,15.0,81,0.00,CLR,,0.00,0.0,WeatherDisplay:10.37,2013-10-26 12:00:00,
2013-10-26 07:05:00,44.3,38.8,30.11,SW,219,8.0,14.0,81,0.00,CLR,,0.00,0.0,WeatherDisplay:10.37,2013-10-26 12:05:00,
2013-10-26 07:10:00,44.6,39.1,30.11,SW,228,7.0,14.0,81,0.00,OVC,,0.00,0.0,WeatherDisplay:10.37,2013-10-26 12:10:00,
2013-10-26 07:15:00,44.9,39.4,30.11,SW,223,6.0,16.0,81,0.00,OVC,,0.00,0.0,WeatherDisplay:10.37,2013-10-26 12:15:00,
2013-10-26 07:20:00,45.0,39.2,30.11,SW,222,8.0,14.0,80,0.00,OVC,,0.00,0.0,WeatherDisplay:10.37,2013-10-26 12:20:00,
2013-10-26 07:25:00,45.1,39.6,30.11,SW,223,9.0,17.0,81,0.00,OVC,,0.00,0.0,WeatherDisplay:10.37,2013-10-26 12:25:00,
2013-10-26 07:30:00,45.3,39.5,30.11,SW,232,7.0,14.0,80,0.00,OVC,,0.00,0.0,WeatherDisplay:10.37,2013-10-26 12:30:00,
2013-10-26 07:35:00,45.3,39.5,30.11,WSW,238,3.0,15.0,80,0.00,OVC,,0.00,0.0,WeatherDisplay:10.37,2013-10-26 12:35:00,
2013-10-26 07:40:00,45.2,39.4,30.12,SW,228,7.0,13.0,80,0.00,OVC,,0.00,0.0,WeatherDisplay:10.37,2013-10-26 12:40:00,
2013-10-26 07:45:00,45.2,39.7,30.12,SW,234,5.0,12.0,81,0.00,OVC,,0.00,7.0,WeatherDisplay:10.37,2013-10-26 12:45:00,
2013-10-26 07:50:00,45.1,39.6,30.11,SW,230,5.0,12.0,81,0.00,OVC,,0.00,11.0,WeatherDisplay:10.37,2013-10-26 12:50:00,
2013-10-26 07:55:00,45.1,39.6,30.12,SW,227,6.0,11.0,81,0.00,OVC,,0.00,14.0,WeatherDisplay:10.37,2013-10-26 12:55:00,
2013-10-26 08:00:00,45.0,39.5,30.12,SW,233,3.0,12.0,81,0.00,OVC,,0.00,19.0,WeatherDisplay:10.37,2013-10-26 13:00:00,
2013-10-26 08:05:00,45.0,39.5,30.12,SW,231,5.0,12.0,81,0.00,OVC,,0.00,25.0,WeatherDisplay:10.37,2013-10-26 13:05:00,
2013-10-26 08:15:00,44.9,39.7,30.13,WSW,255,3.0,8.0,82,0.00,OVC,,0.00,28.0,WeatherDisplay:10.37,2013-10-26 13:15:00,
2013-10-26 08:20:00,44.8,39.7,30.14,WSW,255,2.0,6.0,82,0.00,CLR,,0.00,47.0,WeatherDisplay:10.37,2013-10-26 13:20:00,
2013-10-26 08:25:00,44.9,39.7,30.14,WSW,257,2.0,7.0,82,0.00,CLR,,0.00,83.0,WeatherDisplay:10.37,2013-10-26 13:25:00,
2013-10-26 08:30:00,45.0,39.8,30.14,WSW,248,3.0,7.0,82,0.00,CLR,,0.00,97.0,WeatherDisplay:10.37,2013-10-26 13:30:00,
2013-10-26 08:35:00,45.1,39.9,30.14,WSW,246,3.0,7.0,82,0.00,CLR,,0.00,111.0,WeatherDisplay:10.37,2013-10-26 13:35:00,
2013-10-26 08:40:00,45.3,40.1,30.14,WSW,249,3.0,7.0,82,0.00,CLR,,0.00,127.0,WeatherDisplay:10.37,2013-10-26 13:40:00,
2013-10-26 08:45:00,45.5,40.0,30.15,WSW,255,5.0,10.0,81,0.00,CLR,,0.00,109.0,WeatherDisplay:10.37,2013-10-26 13:45:00,
2013-10-26 08:50:00,45.6,40.1,30.15,WSW,256,3.0,10.0,81,0.00,CLR,,0.00,84.0,WeatherDisplay:10.37,2013-10-26 13:50:00,
2013-10-26 08:55:00,45.6,40.1,30.15,WSW,256,6.0,12.0,81,0.00,CLR,,0.00,167.0,WeatherDisplay:10.37,2013-10-26 13:55:00,
2013-10-26 09:00:00,45.9,40.4,30.15,West,261,3.0,10.0,81,0.00,CLR,,0.00,179.0,WeatherDisplay:10.37,2013-10-26 14:00:00,
2013-10-26 09:05:00,46.2,40.7,30.15,WSW,248,3.0,9.0,81,0.00,CLR,,0.00,188.0,WeatherDisplay:10.37,2013-10-26 14:05:00,
2013-10-26 09:10:00,46.5,40.6,30.15,WSW,239,5.0,12.0,80,0.00,CLR,,0.00,185.0,WeatherDisplay:10.37,2013-10-26 14:10:00,
2013-10-26 09:15:00,46.7,40.9,30.16,WSW,251,6.0,13.0,80,0.00,CLR,,0.00,171.0,WeatherDisplay:10.37,2013-10-26 14:15:00,
2013-10-26 09:20:00,46.9,41.1,30.16,West,260,5.0,12.0,80,0.00,CLR,,0.00,162.0,WeatherDisplay:10.37,2013-10-26 14:20:00,
2013-10-26 09:25:00,47.1,41.3,30.16,West,265,6.0,14.0,80,0.00,CLR,,0.00,204.0,WeatherDisplay:10.37,2013-10-26 14:25:00,
2013-10-26 09:30:00,47.5,41.6,30.16,West,271,3.0,7.0,80,0.00,CLR,,0.00,258.0,WeatherDisplay:10.37,2013-10-26 14:30:00,
2013-10-26 09:35:00,47.9,41.7,30.16,West,277,7.0,12.0,79,0.00,CLR,,0.00,276.0,WeatherDisplay:10.37,2013-10-26 14:35:00,
2013-10-26 09:40:00,48.4,42.2,30.16,WSW,251,6.0,13.0,79,0.00,CLR,,0.00,251.0,WeatherDisplay:10.37,2013-10-26 14:40:00,
2013-10-26 09:45:00,48.8,42.3,30.16,West,271,7.0,13.0,78,0.00,CLR,,0.00,304.0,WeatherDisplay:10.37,2013-10-26 14:45:00,
2013-10-26 09:50:00,49.3,42.8,30.16,WNW,287,5.0,13.0,78,0.00,CLR,,0.00,323.0,WeatherDisplay:10.37,2013-10-26 14:50:00,
2013-10-26 09:55:00,49.7,42.8,30.16,WNW,290,7.0,13.0,77,0.00,CLR,,0.00,338.0,WeatherDisplay:10.37,2013-10-26 14:55:00,
2013-10-26 10:00:00,50.2,43.2,30.16,WNW,295,7.0,12.0,77,0.00,CLR,,0.00,353.0,WeatherDisplay:10.37,2013-10-26 15:00:00,
2013-10-26 10:05:00,50.5,43.2,30.16,WNW,290,8.0,16.0,76,0.00,CLR,,0.00,369.0,WeatherDisplay:10.37,2013-10-26 15:05:00,
2013-10-26 10:10:00,50.9,43.6,30.15,WNW,296,7.0,15.0,76,0.00,CLR,,0.00,360.0,WeatherDisplay:10.37,2013-10-26 15:10:00,
2013-10-26 10:15:00,51.2,43.2,30.15,NW,306,7.0,13.0,74,0.00,CLR,,0.00,396.0,WeatherDisplay:10.37,2013-10-26 15:15:00,
2013-10-26 10:20:00,51.3,42.9,30.15,WNW,299,5.0,14.0,73,0.00,CLR,,0.00,408.0,WeatherDisplay:10.37,2013-10-26 15:20:00,
2013-10-26 10:25:00,51.5,42.8,30.16,WNW,292,7.0,12.0,72,0.00,CLR,,0.00,415.0,WeatherDisplay:10.37,2013-10-26 15:25:00,
2013-10-26 10:30:00,51.6,42.5,30.16,WNW,300,9.0,14.0,71,0.00,CLR,,0.00,432.0,WeatherDisplay:10.37,2013-10-26 15:30:00,
2013-10-26 10:35:00,51.7,42.6,30.17,NW,307,5.0,12.0,71,0.00,CLR,,0.00,445.0,WeatherDisplay:10.37,2013-10-26 15:35:00,
2013-10-26 10:40:00,51.9,42.4,30.17,NW,315,7.0,12.0,70,0.00,CLR,,0.00,450.0,WeatherDisplay:10.37,2013-10-26 15:40:00,
2013-10-26 10:45:00,52.0,42.5,30.17,NW,306,5.0,12.0,70,0.00,CLR,,0.00,468.0,WeatherDisplay:10.37,2013-10-26 15:45:00,
2013-10-26 10:50:00,52.3,43.2,30.17,NW,305,3.0,7.0,71,0.00,CLR,,0.00,478.0,WeatherDisplay:10.37,2013-10-26 15:50:00,
2013-10-26 10:55:00,52.5,42.7,30.17,NW,321,6.0,12.0,69,0.00,CLR,,0.00,490.0,WeatherDisplay:10.37,2013-10-26 15:55:00,
2013-10-26 11:00:00,52.8,42.9,30.17,NW,318,7.0,12.0,69,0.00,CLR,,0.00,501.0,WeatherDisplay:10.37,2013-10-26 16:00:00,
2013-10-26 11:05:00,53.1,43.2,30.17,NW,311,5.0,9.0,69,0.00,CLR,,0.00,508.0,WeatherDisplay:10.37,2013-10-26 16:05:00,
2013-10-26 11:10:00,53.6,42.9,30.17,NW,324,3.0,9.0,67,0.00,CLR,,0.00,519.0,WeatherDisplay:10.37,2013-10-26 16:10:00,
2013-10-26 11:15:00,53.6,42.5,30.17,NNW,328,3.0,10.0,66,0.00,CLR,,0.00,527.0,WeatherDisplay:10.37,2013-10-26 16:15:00,
2013-10-26 11:20:00,53.5,42.4,30.17,NW,319,3.0,12.0,66,0.00,CLR,,0.00,534.0,WeatherDisplay:10.37,2013-10-26 16:20:00,
2013-10-26 11:25:00,53.8,42.7,30.17,NW,310,3.0,7.0,66,0.00,CLR,,0.00,543.0,WeatherDisplay:10.37,2013-10-26 16:25:00,
2013-10-26 11:30:00,54.4,42.9,30.17,NW,315,3.0,6.0,65,0.00,CLR,,0.00,552.0,WeatherDisplay:10.37,2013-10-26 16:30:00,
2013-10-26 11:35:00,54.7,41.9,30.17,NW,319,3.0,10.0,62,0.00,CLR,,0.00,548.0,WeatherDisplay:10.37,2013-10-26 16:35:00,
2013-10-26 11:40:00,54.5,42.6,30.17,NW,319,2.0,12.0,64,0.00,CLR,,0.00,570.0,WeatherDisplay:10.37,2013-10-26 16:40:00,
2013-10-26 11:45:00,55.0,42.2,30.17,NW,316,3.0,9.0,62,0.00,CLR,,0.00,573.0,WeatherDisplay:10.37,2013-10-26 16:45:00,
2013-10-26 11:50:00,54.9,42.2,30.17,NW,312,5.0,10.0,62,0.00,CLR,,0.00,573.0,WeatherDisplay:10.37,2013-10-26 16:50:00,
2013-10-26 11:55:00,55.2,41.6,30.17,NNW,329,3.0,12.0,60,0.00,CLR,,0.00,575.0,WeatherDisplay:10.37,2013-10-26 16:55:00,
2013-10-26 12:00:00,55.8,41.7,30.17,NNW,336,6.0,10.0,59,0.00,CLR,,0.00,584.0,WeatherDisplay:10.37,2013-10-26 17:00:00,
2013-10-26 12:05:00,56.2,41.6,30.17,NNW,338,3.0,7.0,58,0.00,CLR,,0.00,596.0,WeatherDisplay:10.37,2013-10-26 17:05:00,
2013-10-26 12:10:00,56.4,40.9,30.17,NNW,343,5.0,12.0,56,0.00,CLR,,0.00,599.0,WeatherDisplay:10.37,2013-10-26 17:10:00,
2013-10-26 12:15:00,56.5,40.9,30.17,North,350,3.0,10.0,56,0.00,CLR,,0.00,603.0,WeatherDisplay:10.37,2013-10-26 17:15:00,
2013-10-26 12:20:00,56.7,40.2,30.17,North,355,5.0,12.0,54,0.00,CLR,,0.00,606.0,WeatherDisplay:10.37,2013-10-26 17:20:00,
2013-10-26 12:25:00,57.1,40.6,30.17,North,350,2.0,9.0,54,0.00,CLR,,0.00,612.0,WeatherDisplay:10.37,2013-10-26 17:25:00,
2013-10-26 12:30:00,57.3,40.8,30.17,NNW,337,5.0,10.0,54,0.00,CLR,,0.00,615.0,WeatherDisplay:10.37,2013-10-26 17:30:00,
2013-10-26 12:40:00,57.4,40.9,30.17,NNW,332,2.0,10.0,54,0.00,CLR,,0.00,615.0,WeatherDisplay:10.37,2013-10-26 17:40:00,
2013-10-26 12:45:00,58.0,40.5,30.17,NNW,346,5.0,12.0,52,0.00,CLR,,0.00,621.0,WeatherDisplay:10.37,2013-10-26 17:45:00,
2013-10-26 12:50:00,58.4,40.3,30.16,NNW,343,3.0,7.0,51,0.00,CLR,,0.00,622.0,WeatherDisplay:10.37,2013-10-26 17:50:00,
2013-10-26 12:55:00,58.1,39.1,30.16,NW,320,8.0,13.0,49,0.00,CLR,,0.00,626.0,WeatherDisplay:10.37,2013-10-26 17:55:00,
2013-10-26 13:00:00,57.9,39.8,30.16,NW,317,3.0,12.0,51,0.00,CLR,,0.00,626.0,WeatherDisplay:10.37,2013-10-26 18:00:00,
2013-10-26 13:05:00,58.0,37.8,30.16,NNW,335,6.0,14.0,47,0.00,CLR,,0.00,629.0,WeatherDisplay:10.37,2013-10-26 18:05:00,
2013-10-26 13:10:00,58.0,37.9,30.16,NNW,345,3.0,12.0,47,0.00,CLR,,0.00,624.0,WeatherDisplay:10.37,2013-10-26 18:10:00,
2013-10-26 13:20:00,58.1,38.0,30.15,NNE,16,6.0,10.0,47,0.00,CLR,,0.00,626.0,WeatherDisplay:10.37,2013-10-26 18:20:00,
2013-10-26 13:25:00,58.3,38.7,30.16,North,352,6.0,13.0,48,0.00,CLR,,0.00,624.0,WeatherDisplay:10.37,2013-10-26 18:25:00,
2013-10-26 13:30:00,58.0,37.4,30.16,NNW,336,5.0,12.0,46,0.00,CLR,,0.00,626.0,WeatherDisplay:10.37,2013-10-26 18:30:00,
2013-10-26 13:35:00,58.1,38.5,30.16,NNW,344,5.0,13.0,48,0.00,CLR,,0.00,621.0,WeatherDisplay:10.37,2013-10-26 18:35:00,
2013-10-26 13:40:00,58.2,38.6,30.16,NNW,334,6.0,12.0,48,0.00,CLR,,0.00,619.0,WeatherDisplay:10.37,2013-10-26 18:40:00,
2013-10-26 13:45:00,58.4,38.7,30.15,NNW,331,5.0,10.0,48,0.00,CLR,,0.00,613.0,WeatherDisplay:10.37,2013-10-26 18:45:00,
2013-10-26 13:50:00,58.7,36.8,30.15,NNW,334,3.0,14.0,44,0.00,CLR,,0.00,608.0,WeatherDisplay:10.37,2013-10-26 18:50:00,
2013-10-26 13:55:00,59.1,38.3,30.15,NNW,342,5.0,8.0,46,0.00,CLR,,0.00,608.0,WeatherDisplay:10.37,2013-10-26 18:55:00,
2013-10-26 14:00:00,59.2,38.4,30.15,NNW,333,6.0,14.0,46,0.00,CLR,,0.00,606.0,WeatherDisplay:10.37,2013-10-26 19:00:00,
2013-10-26 14:05:00,59.0,37.7,30.15,NW,322,5.0,12.0,45,0.00,CLR,,0.00,603.0,WeatherDisplay:10.37,2013-10-26 19:05:00,
2013-10-26 14:10:00,59.2,37.3,30.15,NNW,346,2.0,8.0,44,0.00,CLR,,0.00,598.0,WeatherDisplay:10.37,2013-10-26 19:10:00,
2013-10-26 14:15:00,59.2,36.1,30.15,North,9,5.0,12.0,42,0.00,CLR,,0.00,594.0,WeatherDisplay:10.37,2013-10-26 19:15:00,
2013-10-26 14:20:00,59.0,37.1,30.14,NNW,345,5.0,14.0,44,0.00,CLR,,0.00,587.0,WeatherDisplay:10.37,2013-10-26 19:20:00,
2013-10-26 14:25:00,58.8,36.4,30.14,NNW,330,5.0,13.0,43,0.00,CLR,,0.00,582.0,WeatherDisplay:10.37,2013-10-26 19:25:00,
2013-10-26 14:30:00,59.0,36.5,30.14,NNW,331,6.0,10.0,43,0.00,CLR,,0.00,575.0,WeatherDisplay:10.37,2013-10-26 19:30:00,
2013-10-26 14:35:00,59.3,36.2,30.14,NNW,338,5.0,12.0,42,0.00,CLR,,0.00,568.0,WeatherDisplay:10.37,2013-10-26 19:35:00,
2013-10-26 14:40:00,59.3,36.2,30.14,North,349,3.0,12.0,42,0.00,CLR,,0.00,561.0,WeatherDisplay:10.37,2013-10-26 19:40:00,
2013-10-26 14:45:00,59.5,36.4,30.14,NNW,329,3.0,12.0,42,0.00,CLR,,0.00,554.0,WeatherDisplay:10.37,2013-10-26 19:45:00,
2013-10-26 14:50:00,59.6,36.4,30.14,NNW,331,5.0,12.0,42,0.00,CLR,,0.00,545.0,WeatherDisplay:10.37,2013-10-26 19:50:00,
2013-10-26 14:55:00,59.3,36.2,30.14,NNW,332,6.0,10.0,42,0.00,CLR,,0.00,536.0,WeatherDisplay:10.37,2013-10-26 19:55:00,
2013-10-26 15:00:00,59.0,36.5,30.14,NNW,335,6.0,12.0,43,0.00,CLR,,0.00,526.0,WeatherDisplay:10.37,2013-10-26 20:00:00,
2013-10-26 15:05:00,59.2,36.7,30.14,NNW,327,5.0,9.0,43,0.00,CLR,,0.00,515.0,WeatherDisplay:10.37,2013-10-26 20:05:00,
2013-10-26 15:10:00,59.1,36.6,30.14,NW,324,5.0,12.0,43,0.00,CLR,,0.00,506.0,WeatherDisplay:10.37,2013-10-26 20:10:00,
2013-10-26 15:15:00,59.5,36.4,30.14,NNW,340,6.0,12.0,42,0.00,CLR,,0.00,497.0,WeatherDisplay:10.37,2013-10-26 20:15:00,
2013-10-26 15:20:00,59.6,35.9,30.14,NNW,334,3.0,10.0,41,0.00,CLR,,0.00,490.0,WeatherDisplay:10.37,2013-10-26 20:20:00,
2013-10-26 15:25:00,59.4,35.7,30.14,NNW,330,7.0,14.0,41,0.00,CLR,,0.00,476.0,WeatherDisplay:10.37,2013-10-26 20:25:00,
2013-10-26 15:30:00,59.5,35.8,30.14,NNW,328,5.0,9.0,41,0.00,CLR,,0.00,466.0,WeatherDisplay:10.37,2013-10-26 20:30:00,
2013-10-26 15:35:00,59.3,33.7,30.14,NNW,336,7.0,14.0,38,0.00,CLR,,0.00,455.0,WeatherDisplay:10.37,2013-10-26 20:35:00,
2013-10-26 15:40:00,59.2,32.3,30.14,North,359,6.0,12.0,36,0.00,CLR,,0.00,443.0,WeatherDisplay:10.37,2013-10-26 20:40:00,
2013-10-26 15:45:00,59.4,33.1,30.14,NNE,12,5.0,9.0,37,0.00,CLR,,0.00,429.0,WeatherDisplay:10.37,2013-10-26 20:45:00,
2013-10-26 15:50:00,59.4,33.7,30.14,North,0,6.0,12.0,38,0.00,CLR,,0.00,417.0,WeatherDisplay:10.37,2013-10-26 20:50:00,
2013-10-26 15:55:00,59.1,33.5,30.14,North,357,5.0,12.0,38,0.00,CLR,,0.00,406.0,WeatherDisplay:10.37,2013-10-26 20:55:00,
2013-10-26 16:00:00,58.9,33.3,30.14,North,358,5.0,12.0,38,0.00,CLR,,0.00,390.0,WeatherDisplay:10.37,2013-10-26 21:00:00,
2013-10-26 16:05:00,58.9,33.3,30.14,NNE,14,3.0,10.0,38,0.00,CLR,,0.00,378.0,WeatherDisplay:10.37,2013-10-26 21:05:00,
2013-10-26 16:10:00,58.9,34.0,30.14,NNE,16,2.0,7.0,39,0.00,CLR,,0.00,364.0,WeatherDisplay:10.37,2013-10-26 21:10:00,
2013-10-26 16:15:00,59.2,34.2,30.14,North,351,3.0,14.0,39,0.00,CLR,,0.00,350.0,WeatherDisplay:10.37,2013-10-26 21:15:00,
2013-10-26 16:20:00,59.2,34.2,30.14,NW,319,6.0,12.0,39,0.00,CLR,,0.00,334.0,WeatherDisplay:10.37,2013-10-26 21:20:00,
2013-10-26 16:25:00,59.3,35.0,30.14,NW,319,3.0,9.0,40,0.00,CLR,,0.00,322.0,WeatherDisplay:10.37,2013-10-26 21:25:00,
2013-10-26 16:30:00,59.2,33.6,30.14,North,353,6.0,12.0,38,0.00,CLR,,0.00,308.0,WeatherDisplay:10.37,2013-10-26 21:30:00,
2013-10-26 16:45:00,58.9,32.6,30.14,NNE,27,6.0,12.0,37,0.00,CLR,,0.00,264.0,WeatherDisplay:10.37,2013-10-26 21:45:00,
2013-10-26 16:50:00,58.7,32.5,30.14,NNE,16,5.0,9.0,37,0.00,FEW,,0.00,251.0,WeatherDisplay:10.37,2013-10-26 21:50:00,
2013-10-26 16:55:00,58.6,31.7,30.14,North,351,6.0,11.0,36,0.00,FEW,,0.00,236.0,WeatherDisplay:10.37,2013-10-26 21:55:00,
2013-10-26 17:05:00,58.3,31.4,30.14,NNW,344,5.0,10.0,36,0.00,FEW,,0.00,206.0,WeatherDisplay:10.37,2013-10-26 22:05:00,
2013-10-26 17:15:00,58.0,31.9,30.14,North,360,3.0,12.0,37,0.00,FEW,,0.00,176.0,WeatherDisplay:10.37,2013-10-26 22:15:00,
2013-10-26 17:20:00,57.9,32.4,30.15,North,360,3.0,12.0,38,0.00,FEW,,0.00,162.0,WeatherDisplay:10.37,2013-10-26 22:20:00,
2013-10-26 17:25:00,57.7,32.2,30.15,North,352,6.0,12.0,38,0.00,FEW,,0.00,151.0,WeatherDisplay:10.37,2013-10-26 22:25:00,
2013-10-26 17:30:00,57.7,32.3,30.15,North,359,2.0,7.0,38,0.00,FEW,,0.00,137.0,WeatherDisplay:10.37,2013-10-26 22:30:00,
2013-10-26 17:35:00,57.6,32.8,30.15,North,4,5.0,7.0,39,0.00,FEW,,0.00,125.0,WeatherDisplay:10.37,2013-10-26 22:35:00,
2013-10-26 17:45:00,57.1,32.4,30.14,NNW,338,3.0,9.0,39,0.00,SCT,,0.00,95.0,WeatherDisplay:10.37,2013-10-26 22:45:00,
2013-10-26 17:50:00,56.9,32.2,30.14,North,350,3.0,9.0,39,0.00,SCT,,0.00,77.0,WeatherDisplay:10.37,2013-10-26 22:50:00,
2013-10-26 17:55:00,56.7,32.6,30.14,North,355,3.0,7.0,40,0.00,SCT,,0.00,60.0,WeatherDisplay:10.37,2013-10-26 22:55:00,
2013-10-26 18:00:00,56.4,32.3,30.15,North,353,3.0,9.0,40,0.00,BKN,,0.00,49.0,WeatherDisplay:10.37,2013-10-26 23:00:00,
2013-10-26 18:05:00,56.1,32.1,30.15,North,352,2.0,10.0,40,0.00,BKN,,0.00,30.0,WeatherDisplay:10.37,2013-10-26 23:05:00,
2013-10-26 18:10:00,55.7,31.7,30.15,North,352,5.0,10.0,40,0.00,BKN,,0.00,18.0,WeatherDisplay:10.37,2013-10-26 23:10:00,
2013-10-26 18:15:00,55.3,32.0,30.15,NNW,343,2.0,7.0,41,0.00,BKN,,0.00,12.0,WeatherDisplay:10.37,2013-10-26 23:15:00,
2013-10-26 18:20:00,54.9,32.2,30.15,NNW,347,3.0,8.0,42,0.00,BKN,,0.00,9.0,WeatherDisplay:10.37,2013-10-26 23:20:00,
2013-10-26 18:25:00,54.4,32.3,30.15,NNW,345,3.0,6.0,43,0.00,OVC,,0.00,5.0,WeatherDisplay:10.37,2013-10-26 23:25:00,
2013-10-26 18:30:00,54.0,32.6,30.16,NNW,340,3.0,7.0,44,0.00,OVC,,0.00,0.0,WeatherDisplay:10.37,2013-10-26 23:30:00,
2013-10-26 18:35:00,53.8,32.4,30.16,North,353,3.0,10.0,44,0.00,OVC,,0.00,0.0,WeatherDisplay:10.37,2013-10-26 23:35:00,
2013-10-26 18:40:00,53.6,32.2,30.17,North,355,2.0,7.0,44,0.00,OVC,,0.00,0.0,WeatherDisplay:10.37,2013-10-26 23:40:00,
2013-10-26 18:45:00,53.2,32.4,30.17,North,352,1.0,6.0,45,0.00,OVC,,0.00,0.0,WeatherDisplay:10.37,2013-10-26 23:45:00,
2013-10-26 18:50:00,52.9,32.1,30.17,North,349,2.0,4.0,45,0.00,OVC,,0.00,0.0,WeatherDisplay:10.37,2013-10-26 23:50:00,
2013-10-26 18:55:00,52.5,32.3,30.17,NNW,348,1.0,4.0,46,0.00,OVC,,0.00,0.0,WeatherDisplay:10.37,2013-10-26 23:55:00,
2013-10-26 19:05:00,51.7,32.6,30.18,NNW,348,1.0,3.0,48,0.00,CLR,,0.00,0.0,WeatherDisplay:10.37,2013-10-27 00:05:00,
2013-10-26 19:10:00,51.3,32.8,30.18,NNW,348,1.0,3.0,49,0.00,CLR,,0.00,0.0,WeatherDisplay:10.37,2013-10-27 00:10:00,
2013-10-26 19:15:00,51.0,33.0,30.18,NNW,347,1.0,3.0,50,0.00,CLR,,0.00,0.0,WeatherDisplay:10.37,2013-10-27 00:15:00,
2013-10-26 19:20:00,50.6,33.2,30.18,NNW,346,1.0,3.0,51,0.00,CLR,,0.00,0.0,WeatherDisplay:10.37,2013-10-27 00:20:00,
2013-10-26 19:25:00,50.3,33.3,30.18,NNW,346,1.0,3.0,52,0.00,CLR,,0.00,0.0,WeatherDisplay:10.37,2013-10-27 00:25:00,
2013-10-26 19:30:00,50.1,33.1,30.18,NNW,346,1.0,3.0,52,0.00,CLR,,0.00,0.0,WeatherDisplay:10.37,2013-10-27 00:30:00,
2013-10-26 19:35:00,49.9,33.4,30.18,NNW,346,1.0,2.0,53,0.00,CLR,,0.00,0.0,WeatherDisplay:10.37,2013-10-27 00:35:00,
2013-10-26 19:40:00,49.7,33.7,30.18,NNW,346,0.0,1.0,54,0.00,CLR,,0.00,0.0,WeatherDisplay:10.37,2013-10-27 00:40:00,
2013-10-26 19:45:00,49.5,33.5,30.18,NNW,346,0.0,2.0,54,0.00,CLR,,0.00,0.0,WeatherDisplay:10.37,2013-10-27 00:45:00,
2013-10-26 19:50:00,49.3,33.8,30.18,NNW,346,0.0,2.0,55,0.00,CLR,,0.00,0.0,WeatherDisplay:10.37,2013-10-27 00:50:00,
2013-10-26 19:55:00,49.2,33.7,30.18,NNW,346,0.0,3.0,55,0.00,CLR,,0.00,0.0,WeatherDisplay:10.37,2013-10-27 00:55:00,
2013-10-26 20:00:00,49.2,33.7,30.18,NNW,346,0.0,1.0,55,0.00,CLR,,0.00,0.0,WeatherDisplay:10.37,2013-10-27 01:00:00,
2013-10-26 20:05:00,49.1,33.6,30.18,NNW,346,0.0,0.0,55,0.00,CLR,,0.00,0.0,WeatherDisplay:10.37,2013-10-27 01:05:00,
2013-10-26 20:10:00,49.0,33.5,30.18,NNW,346,1.0,2.0,55,0.00,CLR,,0.00,0.0,WeatherDisplay:10.37,2013-10-27 01:10:00,
2013-10-26 20:15:00,49.0,33.5,30.18,NNW,346,0.0,1.0,55,0.00,CLR,,0.00,0.0,WeatherDisplay:10.37,2013-10-27 01:15:00,
2013-10-26 20:20:00,48.8,33.8,30.18,NNW,346,0.0,0.0,56,0.00,CLR,,0.00,0.0,WeatherDisplay:10.37,2013-10-27 01:20:00,
2013-10-26 20:25:00,48.7,33.7,30.18,NNW,346,0.0,0.0,56,0.00,CLR,,0.00,0.0,WeatherDisplay:10.37,2013-10-27 01:25:00,
2013-10-26 20:35:00,48.4,33.9,30.18,NNW,346,0.0,2.0,57,0.00,CLR,,0.00,0.0,WeatherDisplay:10.37,2013-10-27 01:35:00,
2013-10-26 20:40:00,48.2,33.7,30.19,NNW,346,1.0,2.0,57,0.00,CLR,,0.00,0.0,WeatherDisplay:10.37,2013-10-27 01:40:00,
2013-10-26 20:45:00,47.9,33.8,30.19,NNW,346,1.0,3.0,58,0.00,CLR,,0.00,0.0,WeatherDisplay:10.37,2013-10-27 01:45:00,
2013-10-26 20:50:00,47.6,34.0,30.19,NNW,346,1.0,3.0,59,0.00,CLR,,0.00,0.0,WeatherDisplay:10.37,2013-10-27 01:50:00,
2013-10-26 20:55:00,47.3,33.7,30.19,NNW,346,1.0,3.0,59,0.00,CLR,,0.00,0.0,WeatherDisplay:10.37,2013-10-27 01:55:00,
2013-10-26 21:00:00,47.3,33.7,30.19,NNW,346,1.0,3.0,59,0.00,CLR,,0.00,0.0,WeatherDisplay:10.37,2013-10-27 02:00:00,
2013-10-26 21:05:00,47.3,33.7,30.19,NNW,346,1.0,3.0,59,0.00,CLR,,0.00,0.0,WeatherDisplay:10.37,2013-10-27 02:05:00,
2013-10-26 21:10:00,47.3,33.3,30.19,NNW,346,1.0,3.0,58,0.00,CLR,,0.00,0.0,WeatherDisplay:10.37,2013-10-27 02:10:00,
2013-10-26 21:15:00,47.3,33.3,30.19,NNW,346,1.0,3.0,58,0.00,CLR,,0.00,0.0,WeatherDisplay:10.37,2013-10-27 02:15:00,
2013-10-26 21:20:00,47.2,33.6,30.19,NNW,346,0.0,1.0,59,0.00,CLR,,0.00,0.0,WeatherDisplay:10.37,2013-10-27 02:20:00,
2013-10-26 21:25:00,47.0,33.4,30.19,NNW,346,0.0,1.0,59,0.00,CLR,,0.00,0.0,WeatherDisplay:10.37,2013-10-27 02:25:00,
2013-10-26 21:30:00,46.7,33.5,30.19,NNW,346,0.0,1.0,60,0.00,CLR,,0.00,0.0,WeatherDisplay:10.37,2013-10-27 02:30:00,
2013-10-26 21:35:00,46.3,33.6,30.19,NNW,346,0.0,1.0,61,0.00,CLR,,0.00,0.0,WeatherDisplay:10.37,2013-10-27 02:35:00,
2013-10-26 21:40:00,46.0,33.7,30.19,NNW,346,0.0,1.0,62,0.00,CLR,,0.00,0.0,WeatherDisplay:10.37,2013-10-27 02:40:00,
2013-10-26 21:45:00,45.6,33.7,30.19,NNW,346,0.0,1.0,63,0.00,CLR,,0.00,0.0,WeatherDisplay:10.37,2013-10-27 02:45:00,
2013-10-26 21:50:00,45.3,33.5,30.19,NNW,346,0.0,1.0,63,0.00,CLR,,0.00,0.0,WeatherDisplay:10.37,2013-10-27 02:50:00,
2013-10-26 22:00:00,44.9,33.5,30.19,NNW,346,0.0,0.0,64,0.00,CLR,,0.00,0.0,WeatherDisplay:10.37,2013-10-27 03:00:00,
2013-10-26 22:05:00,44.9,33.5,30.19,NNW,346,0.0,0.0,64,0.00,CLR,,0.00,0.0,WeatherDisplay:10.37,2013-10-27 03:05:00,
2013-10-26 22:10:00,44.9,33.5,30.19,NNW,346,0.0,0.0,64,0.00,CLR,,0.00,0.0,WeatherDisplay:10.37,2013-10-27 03:10:00,
2013-10-26 22:15:00,45.0,33.5,30.19,NNW,346,0.0,1.0,64,0.00,CLR,,0.00,0.0,WeatherDisplay:10.37,2013-10-27 03:15:00,
2013-10-26 22:20:00,44.9,33.5,30.19,NNW,346,0.0,1.0,64,0.00,CLR,,0.00,0.0,WeatherDisplay:10.37,2013-10-27 03:20:00,
2013-10-26 22:25:00,44.8,33.4,30.19,NNW,346,0.0,0.0,64,0.00,CLR,,0.00,0.0,WeatherDisplay:10.37,2013-10-27 03:25:00,
2013-10-26 22:30:00,44.7,33.3,30.19,NNW,346,0.0,0.0,64,0.00,CLR,,0.00,0.0,WeatherDisplay:10.37,2013-10-27 03:30:00,
2013-10-26 22:35:00,44.6,33.2,30.19,NNW,346,0.0,2.0,64,0.00,CLR,,0.00,0.0,WeatherDisplay:10.37,2013-10-27 03:35:00,
2013-10-26 22:40:00,44.6,33.2,30.19,NNW,346,0.0,1.0,64,0.00,CLR,,0.00,0.0,WeatherDisplay:10.37,2013-10-27 03:40:00,
2013-10-26 22:45:00,44.6,33.2,30.19,NNW,346,0.0,1.0,64,0.00,CLR,,0.00,0.0,WeatherDisplay:10.37,2013-10-27 03:45:00,
2013-10-26 22:50:00,44.6,33.2,30.19,NNW,346,0.0,1.0,64,0.00,CLR,,0.00,0.0,WeatherDisplay:10.37,2013-10-27 03:50:00,
2013-10-26 22:55:00,44.6,33.2,30.19,NNW,346,0.0,0.0,64,0.00,CLR,,0.00,0.0,WeatherDisplay:10.37,2013-10-27 03:55:00,
2013-10-26 23:00:00,44.6,32.8,30.19,NNW,346,0.0,1.0,63,0.00,CLR,,0.00,0.0,WeatherDisplay:10.37,2013-10-27 04:00:00,
2013-10-26 23:05:00,44.6,32.8,30.19,NNW,346,0.0,0.0,63,0.00,CLR,,0.00,0.0,WeatherDisplay:10.37,2013-10-27 04:05:00,
2013-10-26 23:10:00,44.6,32.8,30.19,NNW,346,0.0,1.0,63,0.00,CLR,,0.00,0.0,WeatherDisplay:10.37,2013-10-27 04:10:00,
2013-10-26 23:15:00,44.5,32.7,30.19,NNW,346,0.0,0.0,63,0.00,CLR,,0.00,0.0,WeatherDisplay:10.37,2013-10-27 04:15:00,
2013-10-26 23:20:00,44.5,33.1,30.19,NNW,346,0.0,1.0,64,0.00,CLR,,0.00,0.0,WeatherDisplay:10.37,2013-10-27 04:20:00,
2013-10-26 23:25:00,44.3,32.5,30.19,NNW,346,0.0,2.0,63,0.00,CLR,,0.00,0.0,WeatherDisplay:10.37,2013-10-27 04:25:00,
2013-10-26 23:30:00,44.1,32.7,30.19,NNW,346,0.0,1.0,64,0.00,CLR,,0.00,0.0,WeatherDisplay:10.37,2013-10-27 04:30:00,
2013-10-26 23:35:00,43.9,32.5,30.19,NNW,346,0.0,2.0,64,0.00,CLR,,0.00,0.0,WeatherDisplay:10.37,2013-10-27 04:35:00,
2013-10-26 23:40:00,43.7,32.7,30.19,NNW,346,0.0,1.0,65,0.00,CLR,,0.00,0.0,WeatherDisplay:10.37,2013-10-27 04:40:00,
2013-10-26 23:45:00,43.5,32.5,30.19,NNW,346,0.0,0.0,65,0.00,CLR,,0.00,0.0,WeatherDisplay:10.37,2013-10-27 04:45:00,
2013-10-26 23:50:00,43.3,32.7,30.19,NNW,346,0.0,1.0,66,0.00,CLR,,0.00,0.0,WeatherDisplay:10.37,2013-10-27 04:50:00,
2013-10-26 23:55:00,43.2,32.6,30.19,NNW,346,0.0,0.0,66,0.00,CLR,,0.00,0.0,WeatherDisplay:10.37,2013-10-27 04:55:00,